Time,TemperatureF,DewpointF,PressureIn,WindDirection,WindDirectionDegrees,WindSpeedMPH,WindSpeedGustMPH,Humidity,HourlyPrecipIn,Conditions,Clouds,dailyrainin,SoftwareType,DateUTC
2013-02-01 00:01:00,26.0,23.0,-100.00,SW,225,5.0,6.0,89,-99.99,,,-99.99,,2013-02-01 07:01:00,
2013-02-01 00:11:00,25.0,21.0,-100.00,SW,232,6.0,6.0,85,-99.99,,,-99.99,,2013-02-01 07:11:00,
2013-02-01 00:21:00,25.0,21.0,-100.00,SW,232,6.0,6.0,85,-99.99,,,-99.99,,2013-02-01 07:21:00,
2013-02-01 00:31:00,25.0,21.0,-100.00,SW,232,6.0,6.0,85,-99.99,,,-99.99,,2013-02-01 07:31:00,
2013-02-01 00:41:00,25.0,21.0,-100.00,SW,232,6.0,6.0,85,-99.99,,,-99.99,,2013-02-01 07:41:00,
2013-02-01 00:51:00,24.0,21.0,-100.00,WSW,242,5.0,5.0,89,-99.99,,,-99.99,,2013-02-01 07:51:00,
2013-02-01 01:01:00,24.0,21.0,-100.00,WSW,242,5.0,5.0,89,-99.99,,,-99.99,,2013-02-01 08:01:00,
2013-02-01 01:11:00,25.0,22.0,-100.00,SW,220,4.0,4.0,87,-99.99,,,-99.99,,2013-02-01 08:11:00,
2013-02-01 01:21:00,26.0,22.0,-100.00,WSW,248,4.0,5.0,85,-99.99,,,-99.99,,2013-02-01 08:21:00,
2013-02-01 01:31:00,26.0,22.0,-100.00,WSW,248,4.0,5.0,85,-99.99,,,-99.99,,2013-02-01 08:31:00,
2013-02-01 01:42:00,25.0,22.0,-100.00,West,264,6.0,7.0,87,-99.99,,,-99.99,,2013-02-01 08:42:00,
2013-02-01 01:52:00,25.0,22.0,-100.00,West,264,6.0,7.0,87,-99.99,,,-99.99,,2013-02-01 08:52:00,
2013-02-01 02:01:00,26.0,23.0,-100.00,WSW,253,8.0,9.0,85,-99.99,,,-99.99,,2013-02-01 09:01:00,
2013-02-01 02:11:00,27.0,23.0,-100.00,WSW,257,8.0,9.0,85,-99.99,,,-99.99,,2013-02-01 09:11:00,
2013-02-01 02:21:00,28.0,23.0,-100.00,West,269,8.0,12.0,79,-99.99,,,-99.99,,2013-02-01 09:21:00,
2013-02-01 02:31:00,26.0,22.0,-100.00,West,260,8.0,8.0,84,-99.99,,,-99.99,,2013-02-01 09:31:00,
2013-02-01 02:41:00,25.0,22.0,-100.00,West,265,7.0,8.0,85,-99.99,,,-99.99,,2013-02-01 09:41:00,
2013-02-01 02:51:00,25.0,22.0,-100.00,West,265,7.0,8.0,85,-99.99,,,-99.99,,2013-02-01 09:51:00,
2013-02-01 03:01:00,25.0,21.0,-100.00,West,263,7.0,7.0,86,-99.99,,,-99.99,,2013-02-01 10:01:00,
2013-02-01 03:11:00,25.0,21.0,-100.00,West,263,7.0,7.0,86,-99.99,,,-99.99,,2013-02-01 10:11:00,
2013-02-01 03:21:00,25.0,21.0,-100.00,West,263,7.0,7.0,86,-99.99,,,-99.99,,2013-02-01 10:21:00,
2013-02-01 03:31:00,26.0,21.0,-100.00,WSW,254,6.0,7.0,83,-99.99,,,-99.99,,2013-02-01 10:31:00,
2013-02-01 03:42:00,25.0,21.0,-100.00,WSW,252,6.0,8.0,84,-99.99,,,-99.99,,2013-02-01 10:42:00,
2013-02-01 03:52:00,25.0,22.0,-100.00,WSW,257,6.0,6.0,88,-99.99,,,-99.99,,2013-02-01 10:52:00,
2013-02-01 04:01:00,25.0,22.0,-100.00,WSW,257,6.0,6.0,88,-99.99,,,-99.99,,2013-02-01 11:01:00,
2013-02-01 04:11:00,25.0,21.0,-100.00,WSW,250,5.0,5.0,86,-99.99,,,-99.99,,2013-02-01 11:11:00,
2013-02-01 04:21:00,25.0,21.0,-100.00,WSW,250,5.0,5.0,86,-99.99,,,-99.99,,2013-02-01 11:21:00,
2013-02-01 04:31:00,25.0,21.0,-100.00,WSW,241,5.0,5.0,86,-99.99,,,-99.99,,2013-02-01 11:31:00,
2013-02-01 04:41:00,25.0,21.0,-100.00,WSW,241,5.0,5.0,86,-99.99,,,-99.99,,2013-02-01 11:41:00,
2013-02-01 04:52:00,25.0,21.0,-100.00,WSW,251,5.0,6.0,85,-99.99,,,-99.99,,2013-02-01 11:52:00,
2013-02-01 05:02:00,25.0,21.0,-100.00,WSW,251,5.0,6.0,85,-99.99,,,-99.99,,2013-02-01 12:02:00,
2013-02-01 05:12:00,25.0,21.0,-100.00,WSW,251,5.0,6.0,85,-99.99,,,-99.99,,2013-02-01 12:12:00,
2013-02-01 05:22:00,24.0,20.0,-100.00,WSW,242,5.0,6.0,85,-99.99,,,-99.99,,2013-02-01 12:22:00,
2013-02-01 05:32:00,24.0,20.0,-100.00,WSW,242,5.0,6.0,85,-99.99,,,-99.99,,2013-02-01 12:32:00,
2013-02-01 05:42:00,24.0,20.0,-100.00,West,259,6.0,6.0,86,-99.99,,,-99.99,,2013-02-01 12:42:00,
2013-02-01 05:52:00,25.0,22.0,-100.00,West,268,5.0,5.0,88,-99.99,,,-99.99,,2013-02-01 12:52:00,
2013-02-01 06:01:00,25.0,22.0,-100.00,West,268,5.0,5.0,88,-99.99,,,-99.99,,2013-02-01 13:01:00,
2013-02-01 06:11:00,23.0,20.0,-100.00,WSW,238,6.0,6.0,86,-99.99,,,-99.99,,2013-02-01 13:11:00,
2013-02-01 06:21:00,23.0,20.0,-100.00,SW,232,7.0,7.0,85,-99.99,,,-99.99,,2013-02-01 13:21:00,
2013-02-01 06:32:00,23.0,20.0,-100.00,SW,232,7.0,7.0,85,-99.99,,,-99.99,,2013-02-01 13:32:00,
2013-02-01 06:42:00,23.0,19.0,-100.00,WSW,242,5.0,6.0,83,-99.99,,,-99.99,,2013-02-01 13:42:00,
2013-02-01 06:52:00,23.0,19.0,-100.00,WSW,237,6.0,6.0,83,-99.99,,,-99.99,,2013-02-01 13:52:00,
2013-02-01 07:02:00,23.0,19.0,-100.00,WSW,237,6.0,6.0,84,-99.99,,,-99.99,,2013-02-01 14:02:00,
2013-02-01 07:11:00,23.0,19.0,-100.00,WSW,237,6.0,6.0,84,-99.99,,,-99.99,,2013-02-01 14:11:00,
2013-02-01 07:21:00,23.0,19.0,-100.00,WSW,237,6.0,6.0,84,-99.99,,,-99.99,,2013-02-01 14:21:00,
2013-02-01 07:31:00,24.0,20.0,-100.00,WSW,254,6.0,6.0,85,-99.99,,,-99.99,,2013-02-01 14:31:00,
2013-02-01 07:42:00,24.0,19.0,-100.00,SW,232,6.0,7.0,83,-99.99,,,-99.99,,2013-02-01 14:42:00,
2013-02-01 07:52:00,24.0,19.0,-100.00,SW,229,7.0,7.0,83,-99.99,,,-99.99,,2013-02-01 14:52:00,
2013-02-01 08:02:00,24.0,19.0,-100.00,SW,229,7.0,7.0,83,-99.99,,,-99.99,,2013-02-01 15:02:00,
2013-02-01 08:11:00,24.0,20.0,-100.00,WSW,245,5.0,5.0,83,-99.99,,,-99.99,,2013-02-01 15:11:00,
2013-02-01 08:21:00,24.0,20.0,-100.00,WSW,245,5.0,5.0,83,-99.99,,,-99.99,,2013-02-01 15:21:00,
2013-02-01 08:32:00,24.0,20.0,-100.00,WSW,250,5.0,6.0,83,-99.99,,,-99.99,,2013-02-01 15:32:00,
2013-02-01 08:42:00,24.0,20.0,-100.00,WSW,250,5.0,6.0,83,-99.99,,,-99.99,,2013-02-01 15:42:00,
2013-02-01 08:51:00,25.0,20.0,-100.00,WSW,248,6.0,6.0,82,-99.99,,,-99.99,,2013-02-01 15:51:00,
2013-02-01 09:02:00,26.0,21.0,-100.00,WSW,248,6.0,6.0,78,-99.99,,,-99.99,,2013-02-01 16:02:00,
2013-02-01 09:11:00,27.0,21.0,-100.00,WSW,241,5.0,6.0,76,-99.99,,,-99.99,,2013-02-01 16:11:00,
2013-02-01 09:21:00,27.0,21.0,-100.00,WSW,241,5.0,6.0,76,-99.99,,,-99.99,,2013-02-01 16:21:00,
2013-02-01 09:32:00,27.0,21.0,-100.00,WSW,239,5.0,6.0,75,-99.99,,,-99.99,,2013-02-01 16:32:00,
2013-02-01 09:42:00,27.0,21.0,-100.00,WSW,239,5.0,6.0,75,-99.99,,,-99.99,,2013-02-01 16:42:00,
2013-02-01 09:52:00,31.0,22.0,-100.00,WSW,252,5.0,5.0,69,-99.99,,,-99.99,,2013-02-01 16:52:00,
2013-02-01 10:02:00,31.0,22.0,-100.00,WSW,251,5.0,5.0,67,-99.99,,,-99.99,,2013-02-01 17:02:00,
2013-02-01 10:11:00,31.0,22.0,-100.00,WSW,251,5.0,5.0,67,-99.99,,,-99.99,,2013-02-01 17:11:00,
2013-02-01 10:22:00,31.0,22.0,-100.00,WSW,251,5.0,5.0,67,-99.99,,,-99.99,,2013-02-01 17:22:00,
2013-02-01 10:31:00,32.0,23.0,-100.00,WSW,256,5.0,5.0,66,-99.99,,,-99.99,,2013-02-01 17:31:00,
2013-02-01 10:41:00,33.0,22.0,-100.00,WSW,248,7.0,7.0,65,-99.99,,,-99.99,,2013-02-01 17:41:00,
2013-02-01 10:52:00,33.0,22.0,-100.00,WSW,248,7.0,7.0,65,-99.99,,,-99.99,,2013-02-01 17:52:00,
2013-02-01 11:02:00,33.0,22.0,-100.00,WSW,248,7.0,7.0,65,-99.99,,,-99.99,,2013-02-01 18:02:00,
2013-02-01 11:11:00,34.0,24.0,-100.00,WSW,248,5.0,6.0,66,-99.99,,,-99.99,,2013-02-01 18:11:00,
2013-02-01 11:22:00,36.0,22.0,-100.00,WSW,256,7.0,7.0,55,-99.99,,,-99.99,,2013-02-01 18:22:00,
2013-02-01 11:31:00,36.0,22.0,-100.00,WSW,256,7.0,7.0,55,-99.99,,,-99.99,,2013-02-01 18:31:00,
2013-02-01 11:42:00,36.0,22.0,-100.00,WSW,245,8.0,9.0,55,-99.99,,,-99.99,,2013-02-01 18:42:00,
2013-02-01 11:52:00,37.0,23.0,-100.00,WSW,254,7.0,11.0,56,-99.99,,,-99.99,,2013-02-01 18:52:00,
2013-02-01 12:02:00,37.0,23.0,-100.00,WSW,254,7.0,11.0,56,-99.99,,,-99.99,,2013-02-01 19:02:00,
2013-02-01 12:11:00,36.0,25.0,-100.00,West,259,8.0,9.0,63,-99.99,,,-99.99,,2013-02-01 19:11:00,
2013-02-01 12:21:00,36.0,25.0,-100.00,West,259,8.0,9.0,63,-99.99,,,-99.99,,2013-02-01 19:21:00,
2013-02-01 12:31:00,37.0,24.0,-100.00,WSW,253,8.0,9.0,59,-99.99,,,-99.99,,2013-02-01 19:31:00,
2013-02-01 12:41:00,37.0,24.0,-100.00,WSW,253,8.0,9.0,59,-99.99,,,-99.99,,2013-02-01 19:41:00,
2013-02-01 12:51:00,37.0,25.0,-100.00,WSW,243,8.0,9.0,62,-99.99,,,-99.99,,2013-02-01 19:51:00,
2013-02-01 13:02:00,37.0,25.0,-100.00,WSW,243,8.0,9.0,62,-99.99,,,-99.99,,2013-02-01 20:02:00,
2013-02-01 13:11:00,37.0,25.0,-100.00,West,269,7.0,8.0,60,-99.99,,,-99.99,,2013-02-01 20:11:00,
2013-02-01 13:21:00,37.0,25.0,-100.00,West,269,7.0,8.0,60,-99.99,,,-99.99,,2013-02-01 20:21:00,
2013-02-01 13:31:00,37.0,25.0,-100.00,West,269,7.0,8.0,60,-99.99,,,-99.99,,2013-02-01 20:31:00,
2013-02-01 13:41:00,37.0,23.0,-100.00,WNW,288,8.0,10.0,57,-99.99,,,-99.99,,2013-02-01 20:41:00,
2013-02-01 13:52:00,38.0,24.0,-100.00,WSW,251,8.0,9.0,57,-99.99,,,-99.99,,2013-02-01 20:52:00,
2013-02-01 14:01:00,38.0,24.0,-100.00,WSW,251,8.0,9.0,57,-99.99,,,-99.99,,2013-02-01 21:01:00,
2013-02-01 14:11:00,38.0,23.0,-100.00,WSW,243,7.0,9.0,54,-99.99,,,-99.99,,2013-02-01 21:11:00,
2013-02-01 14:21:00,38.0,23.0,-100.00,WSW,243,7.0,9.0,54,-99.99,,,-99.99,,2013-02-01 21:21:00,
2013-02-01 14:31:00,39.0,24.0,-100.00,WSW,248,6.0,7.0,53,-99.99,,,-99.99,,2013-02-01 21:31:00,
2013-02-01 14:41:00,39.0,24.0,-100.00,WSW,248,6.0,7.0,53,-99.99,,,-99.99,,2013-02-01 21:41:00,
2013-02-01 14:52:00,40.0,23.0,-100.00,West,260,4.0,8.0,50,-99.99,,,-99.99,,2013-02-01 21:52:00,
2013-02-01 15:02:00,39.0,25.0,-100.00,WSW,248,7.0,8.0,55,-99.99,,,-99.99,,2013-02-01 22:02:00,
2013-02-01 15:11:00,39.0,24.0,-100.00,WSW,246,7.0,8.0,55,-99.99,,,-99.99,,2013-02-01 22:11:00,
2013-02-01 15:21:00,39.0,24.0,-100.00,WSW,246,7.0,8.0,55,-99.99,,,-99.99,,2013-02-01 22:21:00,
2013-02-01 15:32:00,38.0,24.0,-100.00,West,262,10.0,11.0,56,-99.99,,,-99.99,,2013-02-01 22:32:00,
2013-02-01 15:41:00,38.0,25.0,-100.00,West,260,9.0,10.0,60,-99.99,,,-99.99,,2013-02-01 22:41:00,
2013-02-01 15:51:00,38.0,25.0,-100.00,West,260,9.0,10.0,60,-99.99,,,-99.99,,2013-02-01 22:51:00,
2013-02-01 16:01:00,37.0,24.0,-100.00,WNW,283,9.0,10.0,57,-99.99,,,-99.99,,2013-02-01 23:01:00,
2013-02-01 16:11:00,37.0,24.0,-100.00,WNW,283,9.0,10.0,57,-99.99,,,-99.99,,2013-02-01 23:11:00,
2013-02-01 16:21:00,38.0,23.0,-100.00,West,279,8.0,9.0,55,-99.99,,,-99.99,,2013-02-01 23:21:00,
2013-02-01 16:31:00,38.0,24.0,-100.00,West,279,6.0,9.0,56,-99.99,,,-99.99,,2013-02-01 23:31:00,
2013-02-01 16:41:00,38.0,24.0,-100.00,West,279,6.0,9.0,56,-99.99,,,-99.99,,2013-02-01 23:41:00,
2013-02-01 16:52:00,37.0,24.0,-100.00,West,268,6.0,9.0,59,-99.99,,,-99.99,,2013-02-01 23:52:00,
2013-02-01 17:01:00,37.0,24.0,-100.00,West,268,6.0,9.0,59,-99.99,,,-99.99,,2013-02-02 00:01:00,
2013-02-01 17:11:00,36.0,24.0,-100.00,West,264,7.0,9.0,59,-99.99,,,-99.99,,2013-02-02 00:11:00,
2013-02-01 17:21:00,36.0,24.0,-100.00,West,264,7.0,9.0,59,-99.99,,,-99.99,,2013-02-02 00:21:00,
2013-02-01 17:32:00,35.0,23.0,-100.00,WNW,285,9.0,9.0,62,-99.99,,,-99.99,,2013-02-02 00:32:00,
2013-02-01 17:41:00,35.0,23.0,-100.00,WNW,285,9.0,9.0,62,-99.99,,,-99.99,,2013-02-02 00:41:00,
2013-02-01 17:52:00,34.0,22.0,-100.00,West,277,10.0,10.0,61,-99.99,,,-99.99,,2013-02-02 00:52:00,
2013-02-01 18:01:00,33.0,23.0,-100.00,West,261,6.0,8.0,66,-99.99,,,-99.99,,2013-02-02 01:01:00,
2013-02-01 18:11:00,32.0,22.0,-100.00,West,260,7.0,9.0,68,-99.99,,,-99.99,,2013-02-02 01:11:00,
2013-02-01 18:21:00,30.0,22.0,-100.00,WSW,252,6.0,8.0,71,-99.99,,,-99.99,,2013-02-02 01:21:00,
2013-02-01 18:31:00,30.0,22.0,-100.00,WSW,252,6.0,8.0,71,-99.99,,,-99.99,,2013-02-02 01:31:00,
2013-02-01 18:41:00,28.0,21.0,-100.00,ENE,76,1.0,3.0,74,-99.99,,,-99.99,,2013-02-02 01:41:00,
2013-02-01 18:52:00,28.0,21.0,-100.00,ENE,76,1.0,3.0,74,-99.99,,,-99.99,,2013-02-02 01:52:00,
2013-02-01 19:01:00,29.0,22.0,-100.00,South,190,4.0,4.0,74,-99.99,,,-99.99,,2013-02-02 02:01:00,
2013-02-01 19:11:00,29.0,22.0,-100.00,South,190,4.0,4.0,74,-99.99,,,-99.99,,2013-02-02 02:11:00,
2013-02-01 19:21:00,26.0,20.0,-100.00,West,271,1.0,2.0,77,-99.99,,,-99.99,,2013-02-02 02:21:00,
2013-02-01 19:31:00,26.0,20.0,-100.00,West,271,1.0,2.0,77,-99.99,,,-99.99,,2013-02-02 02:31:00,
2013-02-01 19:41:00,26.0,20.0,-100.00,SW,221,3.0,3.0,78,-99.99,,,-99.99,,2013-02-02 02:41:00,
2013-02-01 19:52:00,26.0,20.0,-100.00,SW,221,3.0,3.0,78,-99.99,,,-99.99,,2013-02-02 02:52:00,
2013-02-01 20:02:00,25.0,19.0,-100.00,WSW,239,3.0,3.0,77,-99.99,,,-99.99,,2013-02-02 03:02:00,
2013-02-01 20:11:00,25.0,19.0,-100.00,WSW,239,3.0,3.0,77,-99.99,,,-99.99,,2013-02-02 03:11:00,
2013-02-01 20:21:00,25.0,19.0,-100.00,North,0,0.0,2.0,76,-99.99,,,-99.99,,2013-02-02 03:21:00,
2013-02-01 20:32:00,25.0,19.0,-100.00,North,0,0.0,2.0,76,-99.99,,,-99.99,,2013-02-02 03:32:00,
2013-02-01 20:42:00,25.0,19.0,-100.00,WSW,238,2.0,3.0,77,-99.99,,,-99.99,,2013-02-02 03:42:00,
2013-02-01 20:51:00,25.0,19.0,-100.00,WSW,238,2.0,3.0,77,-99.99,,,-99.99,,2013-02-02 03:51:00,
2013-02-01 21:01:00,25.0,19.0,-100.00,WNW,282,2.0,2.0,76,-99.99,,,-99.99,,2013-02-02 04:01:00,
2013-02-01 21:11:00,25.0,19.0,-100.00,WNW,282,2.0,2.0,76,-99.99,,,-99.99,,2013-02-02 04:11:00,
2013-02-01 21:21:00,25.0,19.0,-100.00,WNW,282,2.0,2.0,76,-99.99,,,-99.99,,2013-02-02 04:21:00,
2013-02-01 21:32:00,25.0,19.0,-100.00,West,265,3.0,3.0,77,-99.99,,,-99.99,,2013-02-02 04:32:00,
2013-02-01 21:41:00,24.0,19.0,-100.00,SW,234,2.0,3.0,79,-99.99,,,-99.99,,2013-02-02 04:41:00,
2013-02-01 21:51:00,23.0,18.0,-100.00,West,281,2.0,2.0,81,-99.99,,,-99.99,,2013-02-02 04:51:00,
2013-02-01 22:02:00,24.0,18.0,-100.00,West,263,2.0,3.0,75,-99.99,,,-99.99,,2013-02-02 05:02:00,
2013-02-01 22:11:00,24.0,18.0,-100.00,West,260,2.0,3.0,77,-99.99,,,-99.99,,2013-02-02 05:11:00,
2013-02-01 22:22:00,24.0,18.0,-100.00,West,260,2.0,3.0,77,-99.99,,,-99.99,,2013-02-02 05:22:00,
2013-02-01 22:32:00,25.0,19.0,-100.00,SW,236,2.0,2.0,77,-99.99,,,-99.99,,2013-02-02 05:32:00,
2013-02-01 22:41:00,25.0,19.0,-100.00,SSW,213,3.0,3.0,77,-99.99,,,-99.99,,2013-02-02 05:41:00,
2013-02-01 22:52:00,25.0,19.0,-100.00,SSW,213,3.0,3.0,77,-99.99,,,-99.99,,2013-02-02 05:52:00,
2013-02-01 23:02:00,24.0,19.0,-100.00,SW,217,2.0,3.0,79,-99.99,,,-99.99,,2013-02-02 06:02:00,
2013-02-01 23:11:00,24.0,19.0,-100.00,SW,217,2.0,3.0,79,-99.99,,,-99.99,,2013-02-02 06:11:00,
2013-02-01 23:21:00,25.0,19.0,-100.00,WSW,257,3.0,3.0,78,-99.99,,,-99.99,,2013-02-02 06:21:00,
2013-02-01 23:31:00,25.0,19.0,-100.00,WSW,257,3.0,3.0,78,-99.99,,,-99.99,,2013-02-02 06:31:00,
2013-02-01 23:41:00,25.0,19.0,-100.00,West,267,2.0,3.0,77,-99.99,,,-99.99,,2013-02-02 06:41:00,
2013-02-01 23:51:00,24.0,19.0,-100.00,WSW,240,3.0,4.0,81,-99.99,,,-99.99,,2013-02-02 06:51:00,